カタログに戻る

STARLINK-35307

運用中通信VLEO
NORAD 66013·PAYLOAD·🇺🇸 United States

打ち上げ Oct 16, 2025 から Cape Canaveral Space Force Station

Loading…

次のパス (今後24時間)

TLE

最新Source: CelesTrak SupGP

元期: Sep 15, 2026, 03:44 UTC

1 66013C 25232J   26258.15604167  .00013117  00000+0  38748-3 0  2586
2 66013  53.1584 300.7520 0001276  92.2691  47.4970 15.34390356    17

AllMySatでSTARLINK-35307をリアルタイム追跡

Download on the App Store